CW9346 Weather Reports


time (UTC)temp
C
wind
direction
speed
KPH
gust
KPH
rain 1hr
cm
rain 24hr
cm
rain mn
cm
humidity
%
barometer
mb
20260510021526 16 243 0.0 0.0 0.00 0.00 0.00 74 1006.8
20260510020015 17 243 0.0 0.0 0.00 0.00 0.00 73 1006.7
20260510014515 17 243 0.0 0.0 0.00 0.00 0.00 72 1006.7
20260510013112 17 243 0.0 0.0 0.00 0.00 0.00 71 1006.4
20260510013009 17 243 0.0 0.0 0.00 0.00 0.00 71 1006.4
20260510011553 18 243 0.0 0.0 0.00 0.00 0.00 70 1006.0
20260510010045 18 243 0.0 0.0 0.00 0.00 0.00 68 1005.8
20260510004534 18 243 0.0 0.0 0.00 0.00 0.00 67 1005.7
20260510003032 19 243 0.0 0.0 0.00 0.00 0.00 65 1005.7
20260510001525 20 243 0.0 0.0 0.00 0.00 0.00 63 1005.6
20260510000014 20 243 0.0 0.0 0.00 0.00 0.00 61 1005.5
20260509234504 21 243 0.0 0.0 0.00 0.00 0.00 60 1005.3
20260509233040 21 243 0.0 0.0 0.00 0.00 0.00 60 1005.2
20260509231538 22 243 0.0 0.0 0.00 0.00 0.00 58 1005.0
20260509230030 22 243 0.0 0.0 0.00 0.00 0.00 56 1005.1
20260509224526 22 243 0.0 0.0 0.00 0.00 0.00 56 1005.1
20260509223018 22 243 0.0 0.0 0.00 0.00 0.00 55 1005.0
20260509221512 22 243 0.0 0.0 0.00 0.00 0.00 53 1005.1
20260509220040 22 241 0.0 1.6 0.00 0.00 0.00 55 1005.1
20260509214537 22 164 0.0 0.0 0.00 0.00 0.00 55 1005.0
20260509213028 22 164 0.0 0.0 0.00 0.00 0.00 53 1005.0
20260509211521 22 173 0.0 0.0 0.00 0.00 0.00 55 1004.9
20260509210014 22 173 0.0 0.0 0.00 0.00 0.00 56 1005.0
20260509204506 22 173 0.0 0.0 0.00 0.00 0.00 56 1005.0
20260509203054 22 250 0.0 3.2 0.00 0.00 0.00 57 1004.8
20260509201544 22 239 0.0 0.0 0.00 0.00 0.00 59 1004.8
20260509200047 22 239 0.0 1.6 0.00 0.00 0.00 57 1005.3
20260509194530 22 281 0.0 8.0 0.00 0.00 0.00 59 1005.6
20260509193023 22 269 0.0 0.0 0.00 0.00 0.00 63 1005.8
20260509191512 21 198 0.0 0.0 0.00 0.00 0.00 62 1006.2
20260509190055 21 196 0.0 0.0 0.00 0.00 0.00 62 1006.1
20260509184629 21 246 0.0 1.6 0.00 0.00 0.00 63 1006.1
20260509183047 20 244 0.0 0.0 0.00 0.00 0.00 62 1006.4
20260509181545 20 244 0.0 6.4 0.00 0.00 0.00 61 1006.5
20260509180033 20 191 0.0 1.6 0.00 0.00 0.00 60 1007.1
20260509174523 20 188 0.0 0.0 0.00 0.00 0.00 60 1007.1
20260509173010 20 187 0.0 0.0 0.00 0.00 0.00 61 1007.1
20260509171503 20 265 0.0 1.6 0.00 0.00 0.00 60 1007.3
20260509170001 20 57 0.0 1.6 0.00 0.00 0.00 62 1007.4
20260509164545 19 119 0.0 1.6 0.00 0.00 0.00 62 1007.3
20260509163044 19 40 0.0 0.0 0.00 0.00 0.00 64 1007.3
20260509161526 19 40 0.0 1.6 0.00 0.00 0.00 63 1007.5
20260509160025 20 41 0.0 1.6 0.00 0.00 0.00 63 1007.5
20260509154508 20 72 0.0 1.6 0.00 0.00 0.00 62 1007.8
20260509153059 19 290 0.0 3.2 0.00 0.00 0.00 64 1007.8
20260509151554 18 96 0.0 1.6 0.00 0.00 0.00 63 1007.9
20260509150041 17 96 0.0 0.0 0.00 0.00 0.00 67 1008.0
20260509144544 17 97 0.0 0.0 0.00 0.00 0.00 70 1008.3
20260509143028 16 97 0.0 0.0 0.00 0.00 0.00 72 1008.5
20260509141533 16 97 0.0 0.0 0.00 0.00 0.00 72 1008.5
20260509140011 16 97 0.0 0.0 0.00 0.00 0.00 69 1008.5
20260509134508 15 97 0.0 0.0 0.00 0.00 0.00 70 1008.6
20260509133051 15 97 0.0 1.6 0.00 0.00 0.00 70 1008.5
20260509131545 15 97 0.0 0.0 0.00 0.00 0.00 70 1008.5
20260509130048 15 97 0.0 0.0 0.00 0.00 0.00 69 1008.7
20260509124519 15 76 0.0 0.0 0.00 0.00 0.00 69 1008.5
20260509123013 15 69 0.0 0.0 0.00 0.00 0.00 69 1008.4
20260509121557 14 49 0.0 1.6 0.00 0.00 0.00 69 1008.5
20260509121505 14 49 0.0 1.6 0.00 0.00 0.00 69 1008.5
20260509120055 14 52 0.0 3.2 0.00 0.00 0.00 68 1008.4
20260509114548 14 92 0.0 1.6 0.00 0.00 0.00 66 1008.5
20260509113043 14 91 0.0 1.6 0.00 0.00 0.00 65 1008.4
20260509111544 13 5 0.0 0.0 0.00 0.00 0.00 63 1008.2
20260509110026 13 5 0.0 0.0 0.00 0.00 0.00 62 1008.3
20260509104525 13 5 0.0 0.0 0.00 0.00 0.00 62 1008.2
20260509103102 14 5 0.0 0.0 0.00 0.00 0.00 61 1008.1
20260509103001 14 5 0.0 0.0 0.00 0.00 0.00 61 1008.1
20260509101555 14 5 0.0 0.0 0.00 0.00 0.00 60 1007.9
20260509100104 14 5 0.0 0.0 0.00 0.00 0.00 59 1007.8
20260509094549 14 5 0.0 0.0 0.00 0.00 0.00 59 1007.7
20260509093020 14 5 0.0 0.0 0.00 0.00 0.00 58 1007.9
20260509091520 14 315 0.0 0.0 0.00 0.00 0.00 59 1007.9
20260509090100 14 315 0.0 0.0 0.00 0.00 0.00 58 1008.0
20260509090002 14 315 0.0 0.0 0.00 0.00 0.00 58 1008.0
20260509084558 14 298 0.0 0.0 0.00 0.00 0.00 58 1008.2
20260509083047 14 298 0.0 0.0 0.00 0.00 0.00 58 1008.4
20260509081548 14 297 0.0 8.0 0.00 0.00 0.00 58 1008.5
20260509080046 14 140 0.0 6.4 0.00 0.00 0.00 58 1008.6
20260509074542 14 140 0.0 1.6 0.00 0.00 0.00 58 1008.8
20260509073027 14 141 0.0 0.0 0.00 0.00 0.00 58 1008.8
20260509071526 14 141 0.0 0.0 0.00 0.00 0.00 58 1008.7
20260509070024 14 146 0.0 3.2 0.00 0.00 0.00 57 1008.8
20260509064520 14 175 0.0 1.6 0.00 0.00 0.00 58 1008.8
20260509063101 14 174 0.0 0.0 0.00 0.00 0.00 58 1008.9
20260509061604 14 174 0.0 0.0 0.00 0.00 0.00 58 1009.1
20260509060046 14 244 0.0 0.0 0.00 0.00 0.00 58 1009.1
20260509054550 14 257 0.0 0.0 0.00 0.00 0.00 58 1009.1
20260509053051 14 257 0.0 1.6 0.00 0.00 0.00 58 1009.1
20260509051521 14 238 0.0 0.0 0.00 0.00 0.00 58 1009.2
20260509050100 14 238 0.0 0.0 0.00 0.00 0.00 56 1009.1
20260509050009 14 238 0.0 0.0 0.00 0.00 0.00 56 1009.1
20260509044556 15 239 0.0 0.0 0.00 0.00 0.00 55 1009.1
20260509043049 15 239 0.0 6.4 0.00 0.00 0.00 55 1009.2
20260509041537 15 171 0.0 0.0 0.00 0.00 0.00 56 1009.1
20260509040037 15 163 0.0 1.6 0.00 0.00 0.00 55 1009.1
20260509034535 15 165 0.0 0.0 0.00 0.00 0.00 56 1009.1
20260509033021 15 168 0.0 1.6 0.00 0.00 0.00 56 1009.2
20260509031513 15 169 0.0 1.6 0.00 0.00 0.00 55 1009.4
20260509030013 15 169 0.0 0.0 0.00 0.00 0.00 55 1009.5
20260509024507 15 169 0.0 0.0 0.00 0.00 0.00 54 1009.5
20260509023011 16 169 0.0 0.0 0.00 0.00 0.00 53 1009.6